Time,TemperatureF,DewpointF,PressureIn,WindDirection,WindDirectionDegrees,WindSpeedMPH,WindSpeedGustMPH,Humidity,HourlyPrecipIn,Conditions,Clouds,dailyrainin,SoftwareType,DateUTC
2013-08-14 00:04:00,63.0,-99.9,0.00,SE,135,9.0,10.0,-999,0.03,,,-99.99,,2013-08-14 05:04:00,
2013-08-14 00:09:00,62.0,-99.9,0.00,SE,140,8.0,10.0,-999,0.03,,,-99.99,,2013-08-14 05:09:00,
2013-08-14 00:14:00,62.0,-99.9,0.00,SSE,148,7.0,9.0,-999,0.03,,,-99.99,,2013-08-14 05:14:00,
2013-08-14 00:19:00,62.0,-99.9,0.00,SSE,147,7.0,9.0,-999,0.03,,,-99.99,,2013-08-14 05:19:00,
2013-08-14 00:24:00,62.0,-99.9,0.00,SE,135,8.0,9.0,-999,0.03,,,-99.99,,2013-08-14 05:24:00,
2013-08-14 00:29:00,62.0,-99.9,0.00,SSE,152,7.0,8.0,-999,0.03,,,-99.99,,2013-08-14 05:29:00,
2013-08-14 00:34:00,62.0,-99.9,0.00,SSE,166,7.0,8.0,-999,0.03,,,-99.99,,2013-08-14 05:34:00,
2013-08-14 00:39:00,62.0,-99.9,0.00,SSE,151,7.0,8.0,-999,0.03,,,-99.99,,2013-08-14 05:39:00,
2013-08-14 00:44:00,62.0,-99.9,0.00,SE,130,7.0,9.0,-999,0.03,,,-99.99,,2013-08-14 05:44:00,
2013-08-14 00:49:00,62.0,-99.9,0.00,SE,144,7.0,8.0,-999,0.03,,,-99.99,,2013-08-14 05:49:00,
2013-08-14 00:54:00,62.0,-99.9,0.00,SSE,147,6.0,7.0,-999,0.03,,,-99.99,,2013-08-14 05:54:00,
2013-08-14 00:59:00,61.0,-99.9,0.00,SSE,162,6.0,7.0,-999,0.03,,,-99.99,,2013-08-14 05:59:00,
2013-08-14 01:04:00,61.0,-99.9,0.00,South,171,6.0,6.0,-999,0.03,,,-99.99,,2013-08-14 06:04:00,
2013-08-14 01:09:00,61.0,-99.9,0.00,South,169,6.0,6.0,-999,0.03,,,-99.99,,2013-08-14 06:09:00,
2013-08-14 01:14:00,61.0,-99.9,0.00,SSE,158,5.0,6.0,-999,0.03,,,-99.99,,2013-08-14 06:14:00,
2013-08-14 01:19:00,61.0,-99.9,0.00,South,169,6.0,7.0,-999,0.03,,,-99.99,,2013-08-14 06:19:00,
2013-08-14 01:24:00,60.0,-99.9,0.00,South,176,6.0,6.0,-999,0.03,,,-99.99,,2013-08-14 06:24:00,
2013-08-14 01:29:00,60.0,-99.9,0.00,SSE,166,6.0,6.0,-999,0.03,,,-99.99,,2013-08-14 06:29:00,
2013-08-14 01:34:00,60.0,-99.9,0.00,South,176,5.0,5.0,-999,0.03,,,-99.99,,2013-08-14 06:34:00,
2013-08-14 01:39:00,60.0,-99.9,0.00,South,186,4.0,5.0,-999,0.03,,,-99.99,,2013-08-14 06:39:00,
2013-08-14 01:44:00,60.0,-99.9,0.00,South,175,4.0,5.0,-999,0.03,,,-99.99,,2013-08-14 06:44:00,
2013-08-14 01:49:00,60.0,-99.9,0.00,South,182,3.0,4.0,-999,0.03,,,-99.99,,2013-08-14 06:49:00,
2013-08-14 01:54:00,60.0,-99.9,0.00,North,0,0.0,0.0,-999,0.03,,,-99.99,,2013-08-14 06:54:00,
2013-08-14 01:59:00,60.0,-99.9,0.00,North,0,0.0,0.0,-999,0.03,,,-99.99,,2013-08-14 06:59:00,
2013-08-14 02:04:00,60.0,-99.9,0.00,South,173,5.0,6.0,-999,0.03,,,-99.99,,2013-08-14 07:04:00,
2013-08-14 02:09:00,60.0,-99.9,0.00,South,173,5.0,5.0,-999,0.03,,,-99.99,,2013-08-14 07:09:00,
2013-08-14 02:14:00,59.0,-99.9,0.00,South,183,5.0,6.0,-999,0.03,,,-99.99,,2013-08-14 07:14:00,
2013-08-14 02:19:00,59.0,-99.9,0.00,South,186,6.0,6.0,-999,0.03,,,-99.99,,2013-08-14 07:19:00,
2013-08-14 02:24:00,59.0,-99.9,0.00,South,188,6.0,6.0,-999,0.03,,,-99.99,,2013-08-14 07:24:00,
2013-08-14 02:29:00,59.0,-99.9,0.00,South,185,5.0,6.0,-999,0.03,,,-99.99,,2013-08-14 07:29:00,
2013-08-14 02:34:00,59.0,-99.9,0.00,South,183,4.0,5.0,-999,0.03,,,-99.99,,2013-08-14 07:34:00,
2013-08-14 02:39:00,59.0,-99.9,0.00,North,0,0.0,0.0,-999,0.03,,,-99.99,,2013-08-14 07:39:00,
2013-08-14 02:44:00,60.0,-99.9,0.00,North,0,0.0,0.0,-999,0.03,,,-99.99,,2013-08-14 07:44:00,
2013-08-14 02:49:00,60.0,-99.9,0.00,North,0,0.0,0.0,-999,0.03,,,-99.99,,2013-08-14 07:49:00,
2013-08-14 02:54:00,59.0,-99.9,0.00,North,0,0.0,0.0,-999,0.03,,,-99.99,,2013-08-14 07:54:00,
2013-08-14 02:59:00,59.0,-99.9,0.00,SSE,152,6.0,6.0,-999,0.03,,,-99.99,,2013-08-14 07:59:00,
2013-08-14 03:04:00,59.0,-99.9,0.00,SSE,151,6.0,6.0,-999,0.03,,,-99.99,,2013-08-14 08:04:00,
2013-08-14 03:09:00,59.0,-99.9,0.00,SSE,161,5.0,6.0,-999,0.03,,,-99.99,,2013-08-14 08:09:00,
2013-08-14 03:14:00,59.0,-99.9,0.00,SSE,158,5.0,6.0,-999,0.03,,,-99.99,,2013-08-14 08:14:00,
2013-08-14 03:19:00,59.0,-99.9,0.00,South,171,5.0,6.0,-999,0.03,,,-99.99,,2013-08-14 08:19:00,
2013-08-14 03:24:00,58.0,-99.9,0.00,South,171,5.0,6.0,-999,0.03,,,-99.99,,2013-08-14 08:24:00,
2013-08-14 03:29:00,59.0,-99.9,0.00,SSE,164,5.0,6.0,-999,0.03,,,-99.99,,2013-08-14 08:29:00,
2013-08-14 03:34:00,59.0,-99.9,0.00,South,188,5.0,6.0,-999,0.03,,,-99.99,,2013-08-14 08:34:00,
2013-08-14 03:39:00,59.0,-99.9,0.00,South,188,5.0,5.0,-999,0.03,,,-99.99,,2013-08-14 08:39:00,
2013-08-14 03:44:00,59.0,-99.9,0.00,South,186,6.0,6.0,-999,0.03,,,-99.99,,2013-08-14 08:44:00,
2013-08-14 03:49:00,59.0,-99.9,0.00,South,189,6.0,7.0,-999,0.03,,,-99.99,,2013-08-14 08:49:00,
2013-08-14 03:54:00,60.0,-99.9,0.00,South,182,6.0,8.0,-999,0.03,,,-99.99,,2013-08-14 08:54:00,
2013-08-14 03:59:00,60.0,-99.9,0.00,South,172,7.0,8.0,-999,0.03,,,-99.99,,2013-08-14 08:59:00,
2013-08-14 04:04:00,60.0,-99.9,0.00,SSE,159,7.0,8.0,-999,0.03,,,-99.99,,2013-08-14 09:04:00,
2013-08-14 04:09:00,60.0,-99.9,0.00,South,173,7.0,8.0,-999,0.03,,,-99.99,,2013-08-14 09:09:00,
2013-08-14 04:14:00,60.0,-99.9,0.00,SSE,155,7.0,8.0,-999,0.03,,,-99.99,,2013-08-14 09:14:00,
2013-08-14 04:19:00,60.0,-99.9,0.00,SSE,162,6.0,7.0,-999,0.03,,,-99.99,,2013-08-14 09:19:00,
2013-08-14 04:24:00,60.0,-99.9,0.00,SSE,155,5.0,6.0,-999,0.03,,,-99.99,,2013-08-14 09:24:00,
2013-08-14 04:29:00,60.0,-99.9,0.00,SSE,159,5.0,6.0,-999,0.03,,,-99.99,,2013-08-14 09:29:00,
2013-08-14 04:34:00,60.0,-99.9,0.00,SSE,168,5.0,6.0,-999,0.03,,,-99.99,,2013-08-14 09:34:00,
2013-08-14 04:39:00,60.0,-99.9,0.00,SSE,165,5.0,5.0,-999,0.03,,,-99.99,,2013-08-14 09:39:00,
2013-08-14 04:44:00,60.0,-99.9,0.00,SSE,157,5.0,6.0,-999,0.03,,,-99.99,,2013-08-14 09:44:00,
2013-08-14 04:49:00,60.0,-99.9,0.00,SE,140,4.0,5.0,-999,0.03,,,-99.99,,2013-08-14 09:49:00,
2013-08-14 04:54:00,60.0,-99.9,0.00,North,0,0.0,0.0,-999,0.03,,,-99.99,,2013-08-14 09:54:00,
2013-08-14 04:59:00,60.0,-99.9,0.00,North,0,0.0,0.0,-999,0.03,,,-99.99,,2013-08-14 09:59:00,
2013-08-14 05:04:00,60.0,-99.9,0.00,North,0,0.0,0.0,-999,0.03,,,-99.99,,2013-08-14 10:04:00,
2013-08-14 05:09:00,60.0,-99.9,0.00,North,0,0.0,0.0,-999,0.03,,,-99.99,,2013-08-14 10:09:00,
2013-08-14 05:14:00,59.0,-99.9,0.00,North,0,0.0,0.0,-999,0.03,,,-99.99,,2013-08-14 10:14:00,
2013-08-14 05:19:00,59.0,-99.9,0.00,SSE,158,6.0,7.0,-999,0.03,,,-99.99,,2013-08-14 10:19:00,
2013-08-14 05:24:00,59.0,-99.9,0.00,SSE,154,6.0,7.0,-999,0.03,,,-99.99,,2013-08-14 10:24:00,
2013-08-14 05:29:00,59.0,-99.9,0.00,SSE,164,5.0,6.0,-999,0.03,,,-99.99,,2013-08-14 10:29:00,
2013-08-14 05:34:00,59.0,-99.9,0.00,SSE,159,4.0,5.0,-999,0.03,,,-99.99,,2013-08-14 10:34:00,
2013-08-14 05:39:00,59.0,-99.9,0.00,SSE,166,4.0,5.0,-999,0.03,,,-99.99,,2013-08-14 10:39:00,
2013-08-14 05:44:00,59.0,-99.9,0.00,SSE,159,5.0,6.0,-999,0.03,,,-99.99,,2013-08-14 10:44:00,
2013-08-14 05:49:00,60.0,-99.9,0.00,SSE,158,6.0,7.0,-999,0.03,,,-99.99,,2013-08-14 10:49:00,
2013-08-14 05:54:00,60.0,-99.9,0.00,SSE,154,6.0,7.0,-999,0.03,,,-99.99,,2013-08-14 10:54:00,
2013-08-14 05:59:00,59.0,-99.9,0.00,SSE,149,5.0,6.0,-999,0.03,,,-99.99,,2013-08-14 10:59:00,
2013-08-14 06:04:00,59.0,-99.9,0.00,SSE,161,4.0,5.0,-999,0.03,,,-99.99,,2013-08-14 11:04:00,
2013-08-14 06:09:00,60.0,-99.9,0.00,North,0,0.0,0.0,-999,0.03,,,-99.99,,2013-08-14 11:09:00,
2013-08-14 06:14:00,60.0,-99.9,0.00,North,0,0.0,0.0,-999,0.03,,,-99.99,,2013-08-14 11:14:00,
2013-08-14 06:19:00,60.0,-99.9,0.00,North,0,0.0,0.0,-999,0.03,,,-99.99,,2013-08-14 11:19:00,
2013-08-14 06:24:00,60.0,-99.9,0.00,North,0,0.0,0.0,-999,0.03,,,-99.99,,2013-08-14 11:24:00,
2013-08-14 06:29:00,60.0,-99.9,0.00,SSW,197,5.0,5.0,-999,0.03,,,-99.99,,2013-08-14 11:29:00,
2013-08-14 06:34:00,61.0,-99.9,0.00,SSW,192,5.0,6.0,-999,0.03,,,-99.99,,2013-08-14 11:34:00,
2013-08-14 06:39:00,60.0,-99.9,0.00,SSW,202,6.0,7.0,-999,0.03,,,-99.99,,2013-08-14 11:39:00,
2013-08-14 06:44:00,60.0,-99.9,0.00,SSW,196,7.0,8.0,-999,0.03,,,-99.99,,2013-08-14 11:44:00,
2013-08-14 06:49:00,60.0,-99.9,0.00,SSW,207,6.0,7.0,-999,0.03,,,-99.99,,2013-08-14 11:49:00,
2013-08-14 06:54:00,60.0,-99.9,0.00,SSW,199,6.0,7.0,-999,0.03,,,-99.99,,2013-08-14 11:54:00,
2013-08-14 06:59:00,60.0,-99.9,0.00,South,190,5.0,6.0,-999,0.00,,,-99.99,,2013-08-14 11:59:00,
2013-08-14 07:04:00,60.0,-99.9,0.00,SSW,195,5.0,6.0,-999,0.00,,,-99.99,,2013-08-14 12:04:00,
2013-08-14 07:09:00,61.0,-99.9,0.00,SSW,197,6.0,7.0,-999,0.00,,,-99.99,,2013-08-14 12:09:00,
2013-08-14 07:14:00,61.0,-99.9,0.00,South,180,7.0,8.0,-999,0.00,,,-99.99,,2013-08-14 12:14:00,
2013-08-14 07:19:00,61.0,-99.9,0.00,South,185,7.0,8.0,-999,0.00,,,-99.99,,2013-08-14 12:19:00,
2013-08-14 07:24:00,61.0,-99.9,0.00,SSW,192,6.0,7.0,-999,0.00,,,-99.99,,2013-08-14 12:24:00,
2013-08-14 07:29:00,61.0,-99.9,0.00,South,183,6.0,7.0,-999,0.00,,,-99.99,,2013-08-14 12:29:00,
2013-08-14 07:34:00,61.0,-99.9,0.00,SSW,202,5.0,6.0,-999,0.00,,,-99.99,,2013-08-14 12:34:00,
2013-08-14 07:39:00,61.0,-99.9,0.00,SSW,193,7.0,7.0,-999,0.00,,,-99.99,,2013-08-14 12:39:00,
2013-08-14 07:44:00,61.0,-99.9,0.00,SSE,155,6.0,7.0,-999,0.00,,,-99.99,,2013-08-14 12:44:00,
2013-08-14 07:49:00,61.0,-99.9,0.00,South,176,6.0,8.0,-999,0.00,,,-99.99,,2013-08-14 12:49:00,
2013-08-14 07:54:00,61.0,-99.9,0.00,SSE,147,6.0,7.0,-999,0.00,,,-99.99,,2013-08-14 12:54:00,
2013-08-14 07:59:00,61.0,-99.9,0.00,SSE,149,7.0,9.0,-999,0.00,,,-99.99,,2013-08-14 12:59:00,
2013-08-14 08:04:00,61.0,-99.9,0.00,SSE,159,8.0,9.0,-999,0.00,,,-99.99,,2013-08-14 13:04:00,
2013-08-14 08:14:00,62.0,-99.9,0.00,SSE,151,6.0,8.0,-999,0.00,,,-99.99,,2013-08-14 13:14:00,
2013-08-14 08:19:00,62.0,-99.9,0.00,SSE,166,7.0,8.0,-999,0.00,,,-99.99,,2013-08-14 13:19:00,
2013-08-14 08:24:00,62.0,-99.9,0.00,SSE,165,6.0,7.0,-999,0.00,,,-99.99,,2013-08-14 13:24:00,
2013-08-14 08:29:00,62.0,-99.9,0.00,SSE,152,8.0,10.0,-999,0.00,,,-99.99,,2013-08-14 13:29:00,
2013-08-14 08:34:00,62.0,-99.9,0.00,SSE,151,8.0,9.0,-999,0.00,,,-99.99,,2013-08-14 13:34:00,
2013-08-14 08:39:00,62.0,-99.9,0.00,SSE,159,10.0,11.0,-999,0.00,,,-99.99,,2013-08-14 13:39:00,
2013-08-14 08:44:00,63.0,-99.9,0.00,SSE,152,10.0,11.0,-999,0.00,,,-99.99,,2013-08-14 13:44:00,
2013-08-14 08:49:00,63.0,-99.9,0.00,SSE,154,9.0,11.0,-999,0.00,,,-99.99,,2013-08-14 13:49:00,
2013-08-14 08:59:00,63.0,-99.9,0.00,SE,128,9.0,11.0,-999,0.00,,,-99.99,,2013-08-14 13:59:00,
2013-08-14 09:04:00,62.0,-99.9,0.00,SE,137,10.0,11.0,-999,0.00,,,-99.99,,2013-08-14 14:04:00,
2013-08-14 09:09:00,62.0,-99.9,0.00,SE,138,8.0,9.0,-999,0.00,,,-99.99,,2013-08-14 14:09:00,
2013-08-14 09:14:00,62.0,-99.9,0.00,SE,145,8.0,9.0,-999,0.00,,,-99.99,,2013-08-14 14:14:00,
2013-08-14 09:19:00,62.0,-99.9,0.00,SSE,157,6.0,7.0,-999,0.00,,,-99.99,,2013-08-14 14:19:00,
2013-08-14 09:24:00,62.0,-99.9,0.00,SSE,157,6.0,7.0,-999,0.00,,,-99.99,,2013-08-14 14:24:00,
2013-08-14 09:29:00,62.0,-99.9,0.00,South,169,6.0,7.0,-999,0.00,,,-99.99,,2013-08-14 14:29:00,
2013-08-14 09:34:00,62.0,-99.9,0.00,South,173,6.0,6.0,-999,0.00,,,-99.99,,2013-08-14 14:34:00,
2013-08-14 09:39:00,63.0,-99.9,0.00,SSE,152,6.0,7.0,-999,0.00,,,-99.99,,2013-08-14 14:39:00,
2013-08-14 09:44:00,63.0,-99.9,0.00,SE,142,8.0,9.0,-999,0.00,,,-99.99,,2013-08-14 14:44:00,
2013-08-14 09:49:00,63.0,-99.9,0.00,SE,124,8.0,10.0,-999,0.00,,,-99.99,,2013-08-14 14:49:00,
2013-08-14 09:54:00,63.0,-99.9,0.00,SSE,161,10.0,12.0,-999,0.00,,,-99.99,,2013-08-14 14:54:00,
2013-08-14 09:59:00,63.0,-99.9,0.00,SSE,147,9.0,11.0,-999,0.00,,,-99.99,,2013-08-14 14:59:00,
2013-08-14 10:04:00,63.0,-99.9,0.00,SE,137,10.0,12.0,-999,0.00,,,-99.99,,2013-08-14 15:04:00,
2013-08-14 10:09:00,64.0,-99.9,0.00,SE,145,9.0,10.0,-999,0.00,,,-99.99,,2013-08-14 15:09:00,
2013-08-14 10:14:00,64.0,-99.9,0.00,SE,141,10.0,12.0,-999,0.00,,,-99.99,,2013-08-14 15:14:00,
2013-08-14 10:19:00,64.0,-99.9,0.00,SE,145,11.0,12.0,-999,0.00,,,-99.99,,2013-08-14 15:19:00,
2013-08-14 10:24:00,64.0,-99.9,0.00,SSE,161,11.0,13.0,-999,0.00,,,-99.99,,2013-08-14 15:24:00,
2013-08-14 10:29:00,64.0,-99.9,0.00,SSE,159,11.0,14.0,-999,0.00,,,-99.99,,2013-08-14 15:29:00,
2013-08-14 10:34:00,65.0,-99.9,0.00,SE,142,11.0,13.0,-999,0.00,,,-99.99,,2013-08-14 15:34:00,
2013-08-14 10:39:00,65.0,-99.9,0.00,SE,145,11.0,13.0,-999,0.00,,,-99.99,,2013-08-14 15:39:00,
2013-08-14 10:44:00,65.0,-99.9,0.00,SE,140,11.0,13.0,-999,0.00,,,-99.99,,2013-08-14 15:44:00,
2013-08-14 10:49:00,65.0,-99.9,0.00,SE,135,11.0,15.0,-999,0.00,,,-99.99,,2013-08-14 15:49:00,
2013-08-14 10:54:00,65.0,-99.9,0.00,SSE,148,13.0,14.0,-999,0.00,,,-99.99,,2013-08-14 15:54:00,
2013-08-14 10:59:00,65.0,-99.9,0.00,SE,138,13.0,15.0,-999,0.00,,,-99.99,,2013-08-14 15:59:00,
2013-08-14 11:04:00,65.0,-99.9,0.00,SSE,147,12.0,14.0,-999,0.00,,,-99.99,,2013-08-14 16:04:00,
2013-08-14 11:09:00,65.0,-99.9,0.00,SSE,148,11.0,14.0,-999,0.00,,,-99.99,,2013-08-14 16:09:00,
2013-08-14 11:14:00,66.0,-99.9,0.00,SSE,154,12.0,15.0,-999,0.00,,,-99.99,,2013-08-14 16:14:00,
2013-08-14 11:24:00,66.0,-99.9,0.00,SE,142,13.0,14.0,-999,0.00,,,-99.99,,2013-08-14 16:24:00,
2013-08-14 11:34:00,66.0,-99.9,0.00,SE,134,12.0,14.0,-999,0.00,,,-99.99,,2013-08-14 16:34:00,
2013-08-14 11:39:00,66.0,-99.9,0.00,SE,137,13.0,16.0,-999,0.00,,,-99.99,,2013-08-14 16:39:00,
2013-08-14 11:44:00,66.0,-99.9,0.00,SSE,157,13.0,15.0,-999,0.00,,,-99.99,,2013-08-14 16:44:00,
2013-08-14 11:59:00,67.0,-99.9,0.00,SSE,154,13.0,16.0,-999,0.00,,,-99.99,,2013-08-14 16:59:00,
2013-08-14 12:04:00,66.0,-99.9,0.00,SE,141,13.0,15.0,-999,0.00,,,-99.99,,2013-08-14 17:04:00,
2013-08-14 12:09:00,66.0,-99.9,0.00,SE,144,13.0,15.0,-999,0.00,,,-99.99,,2013-08-14 17:09:00,
2013-08-14 12:14:00,67.0,-99.9,0.00,SE,140,12.0,14.0,-999,0.00,,,-99.99,,2013-08-14 17:14:00,
2013-08-14 12:19:00,67.0,-99.9,0.00,SE,137,12.0,13.0,-999,0.00,,,-99.99,,2013-08-14 17:19:00,
2013-08-14 12:24:00,67.0,-99.9,0.00,SE,145,11.0,12.0,-999,0.00,,,-99.99,,2013-08-14 17:24:00,
2013-08-14 12:34:00,67.0,-99.9,0.00,ESE,121,6.0,8.0,-999,0.00,,,-99.99,,2013-08-14 17:34:00,
2013-08-14 12:44:00,67.0,-99.9,0.00,East,97,11.0,13.0,-999,0.00,,,-99.99,,2013-08-14 17:44:00,
2013-08-14 12:49:00,67.0,-99.9,0.00,East,97,9.0,10.0,-999,0.00,,,-99.99,,2013-08-14 17:49:00,
2013-08-14 12:54:00,67.0,-99.9,0.00,SE,124,6.0,8.0,-999,0.00,,,-99.99,,2013-08-14 17:54:00,
2013-08-14 12:59:00,65.0,-99.9,0.00,NE,47,6.0,8.0,-999,0.00,,,-99.99,,2013-08-14 17:59:00,
2013-08-14 13:04:00,64.0,-99.9,0.00,East,79,11.0,13.0,-999,0.01,,,-99.99,,2013-08-14 18:04:00,
2013-08-14 13:09:00,64.0,-99.9,0.00,ENE,65,13.0,14.0,-999,0.01,,,-99.99,,2013-08-14 18:09:00,
2013-08-14 13:14:00,64.0,-99.9,0.00,ESE,103,12.0,13.0,-999,0.01,,,-99.99,,2013-08-14 18:14:00,
2013-08-14 13:24:00,64.0,-99.9,0.00,SE,140,11.0,12.0,-999,0.02,,,-99.99,,2013-08-14 18:24:00,
2013-08-14 13:34:00,65.0,-99.9,0.00,SSE,165,11.0,12.0,-999,0.02,,,-99.99,,2013-08-14 18:34:00,
2013-08-14 13:39:00,66.0,-99.9,0.00,SE,138,10.0,12.0,-999,0.03,,,-99.99,,2013-08-14 18:39:00,
2013-08-14 13:44:00,66.0,-99.9,0.00,SE,141,10.0,12.0,-999,0.03,,,-99.99,,2013-08-14 18:44:00,
2013-08-14 13:54:00,65.0,-99.9,0.00,SE,144,13.0,14.0,-999,0.03,,,-99.99,,2013-08-14 18:54:00,
2013-08-14 13:59:00,65.0,-99.9,0.00,SSE,154,14.0,16.0,-999,0.04,,,-99.99,,2013-08-14 18:59:00,
2013-08-14 14:04:00,65.0,-99.9,0.00,SE,144,15.0,17.0,-999,0.04,,,-99.99,,2013-08-14 19:04:00,
2013-08-14 14:19:00,67.0,-99.9,0.00,SE,137,12.0,14.0,-999,0.05,,,-99.99,,2013-08-14 19:19:00,
2013-08-14 14:24:00,67.0,-99.9,0.00,SE,138,13.0,15.0,-999,0.05,,,-99.99,,2013-08-14 19:24:00,
2013-08-14 14:29:00,67.0,-99.9,0.00,SE,128,12.0,14.0,-999,0.05,,,-99.99,,2013-08-14 19:29:00,
2013-08-14 14:39:00,67.0,-99.9,0.00,ESE,123,12.0,16.0,-999,0.06,,,-99.99,,2013-08-14 19:39:00,
2013-08-14 14:44:00,68.0,-99.9,0.00,SE,144,11.0,14.0,-999,0.07,,,-99.99,,2013-08-14 19:44:00,
2013-08-14 14:54:00,68.0,-99.9,0.00,SSE,147,13.0,16.0,-999,0.07,,,-99.99,,2013-08-14 19:54:00,
2013-08-14 15:04:00,69.0,-99.9,0.00,SE,137,13.0,16.0,-999,0.08,,,-99.99,,2013-08-14 20:04:00,
2013-08-14 15:09:00,69.0,-99.9,0.00,ESE,116,15.0,16.0,-999,0.08,,,-99.99,,2013-08-14 20:09:00,
2013-08-14 15:14:00,70.0,-99.9,0.00,SE,138,15.0,17.0,-999,0.09,,,-99.99,,2013-08-14 20:14:00,
2013-08-14 15:19:00,70.0,-99.9,0.00,SE,133,14.0,17.0,-999,0.09,,,-99.99,,2013-08-14 20:19:00,
2013-08-14 15:24:00,70.0,-99.9,0.00,SE,144,14.0,17.0,-999,0.09,,,-99.99,,2013-08-14 20:24:00,
2013-08-14 15:29:00,71.0,-99.9,0.00,SE,145,14.0,16.0,-999,0.10,,,-99.99,,2013-08-14 20:29:00,
2013-08-14 15:39:00,70.0,-99.9,0.00,SE,134,13.0,15.0,-999,0.10,,,-99.99,,2013-08-14 20:39:00,
2013-08-14 15:44:00,71.0,-99.9,0.00,ESE,116,14.0,16.0,-999,0.11,,,-99.99,,2013-08-14 20:44:00,
2013-08-14 15:49:00,71.0,-99.9,0.00,SE,134,14.0,16.0,-999,0.11,,,-99.99,,2013-08-14 20:49:00,
2013-08-14 15:54:00,72.0,-99.9,0.00,ESE,120,14.0,18.0,-999,0.11,,,-99.99,,2013-08-14 20:54:00,
2013-08-14 15:59:00,72.0,-99.9,0.00,East,94,13.0,16.0,-999,0.12,,,-99.99,,2013-08-14 20:59:00,
2013-08-14 16:04:00,72.0,-99.9,0.00,SE,130,12.0,16.0,-999,0.12,,,-99.99,,2013-08-14 21:04:00,
2013-08-14 16:14:00,72.0,-99.9,0.00,SSE,158,13.0,16.0,-999,0.13,,,-99.99,,2013-08-14 21:14:00,
2013-08-14 16:19:00,72.0,-99.9,0.00,ESE,118,14.0,16.0,-999,0.13,,,-99.99,,2013-08-14 21:19:00,
2013-08-14 16:24:00,72.0,-99.9,0.00,ESE,118,12.0,15.0,-999,0.13,,,-99.99,,2013-08-14 21:24:00,
2013-08-14 16:29:00,73.0,-99.9,0.00,SE,128,14.0,17.0,-999,0.13,,,-99.99,,2013-08-14 21:29:00,
2013-08-14 16:34:00,73.0,-99.9,0.00,SE,140,15.0,17.0,-999,0.13,,,-99.99,,2013-08-14 21:34:00,
2013-08-14 16:39:00,73.0,-99.9,0.00,ESE,121,12.0,15.0,-999,0.14,,,-99.99,,2013-08-14 21:39:00,
2013-08-14 16:44:00,73.0,-99.9,0.00,SE,138,14.0,17.0,-999,0.14,,,-99.99,,2013-08-14 21:44:00,
2013-08-14 16:49:00,74.0,-99.9,0.00,SE,138,13.0,16.0,-999,0.14,,,-99.99,,2013-08-14 21:49:00,
2013-08-14 16:59:00,74.0,-99.9,0.00,SE,142,15.0,18.0,-999,0.15,,,-99.99,,2013-08-14 21:59:00,
2013-08-14 17:04:00,74.0,-99.9,0.00,SSE,147,14.0,18.0,-999,0.15,,,-99.99,,2013-08-14 22:04:00,
2013-08-14 17:14:00,74.0,-99.9,0.00,SE,135,16.0,20.0,-999,0.15,,,-99.99,,2013-08-14 22:14:00,
2013-08-14 17:19:00,74.0,-99.9,0.00,SE,142,15.0,17.0,-999,0.15,,,-99.99,,2013-08-14 22:19:00,
2013-08-14 17:24:00,74.0,-99.9,0.00,SE,141,14.0,18.0,-999,0.16,,,-99.99,,2013-08-14 22:24:00,
2013-08-14 17:29:00,75.0,-99.9,0.00,SSE,147,13.0,16.0,-999,0.16,,,-99.99,,2013-08-14 22:29:00,
2013-08-14 17:39:00,74.0,-99.9,0.00,SE,144,15.0,18.0,-999,0.16,,,-99.99,,2013-08-14 22:39:00,
2013-08-14 17:49:00,75.0,-99.9,0.00,SE,141,16.0,19.0,-999,0.17,,,-99.99,,2013-08-14 22:49:00,
2013-08-14 17:54:00,75.0,-99.9,0.00,SE,138,16.0,18.0,-999,0.17,,,-99.99,,2013-08-14 22:54:00,
2013-08-14 17:59:00,75.0,-99.9,0.00,SE,138,15.0,17.0,-999,0.17,,,-99.99,,2013-08-14 22:59:00,
2013-08-14 18:04:00,75.0,-99.9,0.00,SE,145,13.0,19.0,-999,0.17,,,-99.99,,2013-08-14 23:04:00,
2013-08-14 18:09:00,75.0,-99.9,0.00,SE,145,15.0,19.0,-999,0.17,,,-99.99,,2013-08-14 23:09:00,
2013-08-14 18:19:00,75.0,-99.9,0.00,SSE,152,15.0,18.0,-999,0.17,,,-99.99,,2013-08-14 23:19:00,
2013-08-14 18:24:00,75.0,-99.9,0.00,SE,133,14.0,18.0,-999,0.17,,,-99.99,,2013-08-14 23:24:00,
2013-08-14 18:29:00,75.0,-99.9,0.00,SE,144,14.0,18.0,-999,0.17,,,-99.99,,2013-08-14 23:29:00,
2013-08-14 18:34:00,75.0,-99.9,0.00,SSE,162,15.0,18.0,-999,0.17,,,-99.99,,2013-08-14 23:34:00,
2013-08-14 18:39:00,75.0,-99.9,0.00,SE,137,14.0,18.0,-999,0.18,,,-99.99,,2013-08-14 23:39:00,
2013-08-14 18:44:00,75.0,-99.9,0.00,South,169,14.0,18.0,-999,0.18,,,-99.99,,2013-08-14 23:44:00,
2013-08-14 18:49:00,75.0,-99.9,0.00,South,173,14.0,16.0,-999,0.18,,,-99.99,,2013-08-14 23:49:00,
2013-08-14 18:54:00,75.0,-99.9,0.00,SE,145,14.0,16.0,-999,0.18,,,-99.99,,2013-08-14 23:54:00,
2013-08-14 19:04:00,74.0,-99.9,0.00,SSE,154,13.0,16.0,-999,0.18,,,-99.99,,2013-08-15 00:04:00,
2013-08-14 19:09:00,75.0,-99.9,0.00,SSE,149,13.0,15.0,-999,0.18,,,-99.99,,2013-08-15 00:09:00,
2013-08-14 19:14:00,74.0,-99.9,0.00,SE,145,13.0,15.0,-999,0.19,,,-99.99,,2013-08-15 00:14:00,
2013-08-14 19:19:00,74.0,-99.9,0.00,SSE,157,12.0,14.0,-999,0.19,,,-99.99,,2013-08-15 00:19:00,
2013-08-14 19:24:00,74.0,-99.9,0.00,SSE,148,10.0,12.0,-999,0.19,,,-99.99,,2013-08-15 00:24:00,
2013-08-14 19:29:00,74.0,-99.9,0.00,SE,125,10.0,12.0,-999,0.19,,,-99.99,,2013-08-15 00:29:00,
2013-08-14 19:34:00,74.0,-99.9,0.00,SE,124,10.0,12.0,-999,0.19,,,-99.99,,2013-08-15 00:34:00,
2013-08-14 19:44:00,74.0,-99.9,0.00,SE,141,9.0,11.0,-999,0.19,,,-99.99,,2013-08-15 00:44:00,
2013-08-14 19:49:00,74.0,-99.9,0.00,SE,133,9.0,12.0,-999,0.19,,,-99.99,,2013-08-15 00:49:00,
2013-08-14 19:54:00,73.0,-99.9,0.00,SE,135,9.0,10.0,-999,0.19,,,-99.99,,2013-08-15 00:54:00,
2013-08-14 19:59:00,73.0,-99.9,0.00,ESE,120,8.0,10.0,-999,0.19,,,-99.99,,2013-08-15 00:59:00,
2013-08-14 20:04:00,72.0,-99.9,0.00,ESE,109,8.0,10.0,-999,0.19,,,-99.99,,2013-08-15 01:04:00,
2013-08-14 20:09:00,72.0,-99.9,0.00,ESE,123,8.0,9.0,-999,0.19,,,-99.99,,2013-08-15 01:09:00,
2013-08-14 20:14:00,72.0,-99.9,0.00,SE,133,8.0,10.0,-999,0.19,,,-99.99,,2013-08-15 01:14:00,
2013-08-14 20:19:00,71.0,-99.9,0.00,ESE,120,8.0,10.0,-999,0.20,,,-99.99,,2013-08-15 01:19:00,
2013-08-14 20:24:00,71.0,-99.9,0.00,SE,125,8.0,10.0,-999,0.20,,,-99.99,,2013-08-15 01:24:00,
2013-08-14 20:29:00,70.0,-99.9,0.00,ESE,117,8.0,10.0,-999,0.20,,,-99.99,,2013-08-15 01:29:00,
2013-08-14 20:34:00,70.0,-99.9,0.00,ESE,110,8.0,9.0,-999,0.20,,,-99.99,,2013-08-15 01:34:00,
2013-08-14 20:39:00,70.0,-99.9,0.00,SE,133,8.0,9.0,-999,0.20,,,-99.99,,2013-08-15 01:39:00,
2013-08-14 20:44:00,69.0,-99.9,0.00,ESE,118,7.0,9.0,-999,0.20,,,-99.99,,2013-08-15 01:44:00,
2013-08-14 20:49:00,69.0,-99.9,0.00,SE,130,7.0,10.0,-999,0.20,,,-99.99,,2013-08-15 01:49:00,
2013-08-14 20:54:00,69.0,-99.9,0.00,SE,125,8.0,10.0,-999,0.20,,,-99.99,,2013-08-15 01:54:00,
2013-08-14 20:59:00,68.0,-99.9,0.00,ESE,121,8.0,10.0,-999,0.20,,,-99.99,,2013-08-15 01:59:00,
2013-08-14 21:04:00,68.0,-99.9,0.00,SE,130,8.0,10.0,-999,0.20,,,-99.99,,2013-08-15 02:04:00,
2013-08-14 21:09:00,68.0,-99.9,0.00,SE,125,7.0,8.0,-999,0.21,,,-99.99,,2013-08-15 02:09:00,
2013-08-14 21:14:00,68.0,-99.9,0.00,SE,135,7.0,8.0,-999,0.21,,,-99.99,,2013-08-15 02:14:00,
2013-08-14 21:19:00,68.0,-99.9,0.00,SE,142,7.0,8.0,-999,0.21,,,-99.99,,2013-08-15 02:19:00,
2013-08-14 21:24:00,67.0,-99.9,0.00,SE,130,7.0,9.0,-999,0.21,,,-99.99,,2013-08-15 02:24:00,
2013-08-14 21:29:00,68.0,-99.9,0.00,ESE,118,8.0,10.0,-999,0.21,,,-99.99,,2013-08-15 02:29:00,
2013-08-14 21:34:00,67.0,-99.9,0.00,ESE,123,7.0,8.0,-999,0.21,,,-99.99,,2013-08-15 02:34:00,
2013-08-14 21:39:00,67.0,-99.9,0.00,SE,144,6.0,8.0,-999,0.21,,,-99.99,,2013-08-15 02:39:00,
2013-08-14 21:44:00,66.0,-99.9,0.00,SE,144,6.0,8.0,-999,0.21,,,-99.99,,2013-08-15 02:44:00,
2013-08-14 21:49:00,66.0,-99.9,0.00,South,178,4.0,5.0,-999,0.21,,,-99.99,,2013-08-15 02:49:00,
2013-08-14 21:54:00,66.0,-99.9,0.00,SSE,149,5.0,6.0,-999,0.21,,,-99.99,,2013-08-15 02:54:00,
2013-08-14 21:59:00,66.0,-99.9,0.00,SSE,148,6.0,7.0,-999,0.21,,,-99.99,,2013-08-15 02:59:00,
2013-08-14 22:04:00,65.0,-99.9,0.00,SSE,152,6.0,7.0,-999,0.21,,,-99.99,,2013-08-15 03:04:00,
2013-08-14 22:09:00,65.0,-99.9,0.00,SSE,155,6.0,7.0,-999,0.21,,,-99.99,,2013-08-15 03:09:00,
2013-08-14 22:14:00,66.0,-99.9,0.00,SSE,159,5.0,6.0,-999,0.21,,,-99.99,,2013-08-15 03:14:00,
2013-08-14 22:19:00,65.0,-99.9,0.00,SSE,165,5.0,6.0,-999,0.21,,,-99.99,,2013-08-15 03:19:00,
2013-08-14 22:24:00,65.0,-99.9,0.00,SSE,164,6.0,7.0,-999,0.22,,,-99.99,,2013-08-15 03:24:00,
2013-08-14 22:29:00,65.0,-99.9,0.00,South,171,6.0,6.0,-999,0.22,,,-99.99,,2013-08-15 03:29:00,
2013-08-14 22:34:00,65.0,-99.9,0.00,South,176,7.0,8.0,-999,0.22,,,-99.99,,2013-08-15 03:34:00,
2013-08-14 22:39:00,65.0,-99.9,0.00,South,175,7.0,7.0,-999,0.22,,,-99.99,,2013-08-15 03:39:00,
2013-08-14 22:44:00,65.0,-99.9,0.00,South,172,7.0,8.0,-999,0.22,,,-99.99,,2013-08-15 03:44:00,
2013-08-14 22:49:00,65.0,-99.9,0.00,SSE,148,8.0,8.0,-999,0.22,,,-99.99,,2013-08-15 03:49:00,
2013-08-14 22:54:00,64.0,-99.9,0.00,South,171,8.0,8.0,-999,0.22,,,-99.99,,2013-08-15 03:54:00,
2013-08-14 22:59:00,64.0,-99.9,0.00,South,179,7.0,7.0,-999,0.22,,,-99.99,,2013-08-15 03:59:00,
2013-08-14 23:04:00,64.0,-99.9,0.00,South,180,7.0,8.0,-999,0.22,,,-99.99,,2013-08-15 04:04:00,
2013-08-14 23:09:00,64.0,-99.9,0.00,South,169,7.0,8.0,-999,0.22,,,-99.99,,2013-08-15 04:09:00,
2013-08-14 23:14:00,65.0,-99.9,0.00,SSE,162,8.0,8.0,-999,0.22,,,-99.99,,2013-08-15 04:14:00,
2013-08-14 23:19:00,64.0,-99.9,0.00,SSE,158,8.0,9.0,-999,0.22,,,-99.99,,2013-08-15 04:19:00,
2013-08-14 23:24:00,64.0,-99.9,0.00,SSE,159,8.0,8.0,-999,0.23,,,-99.99,,2013-08-15 04:24:00,
2013-08-14 23:29:00,63.0,-99.9,0.00,SSE,159,8.0,9.0,-999,0.23,,,-99.99,,2013-08-15 04:29:00,
2013-08-14 23:34:00,63.0,-99.9,0.00,SSE,166,8.0,8.0,-999,0.23,,,-99.99,,2013-08-15 04:34:00,
2013-08-14 23:39:00,64.0,-99.9,0.00,SE,145,8.0,9.0,-999,0.23,,,-99.99,,2013-08-15 04:39:00,
2013-08-14 23:44:00,64.0,-99.9,0.00,SSE,159,9.0,9.0,-999,0.23,,,-99.99,,2013-08-15 04:44:00,
2013-08-14 23:49:00,64.0,-99.9,0.00,SSE,159,8.0,9.0,-999,0.23,,,-99.99,,2013-08-15 04:49:00,
2013-08-14 23:54:00,64.0,-99.9,0.00,SSE,151,8.0,10.0,-999,0.23,,,-99.99,,2013-08-15 04:54:00,
2013-08-14 23:59:00,64.0,-99.9,0.00,SE,144,8.0,10.0,-999,0.23,,,-99.99,,2013-08-15 04:59:00,